Flag for U.S.A. Weather past 2 weeks in Sandpoint, Idaho, U.S.A.

Now
34 °F

Overcast.


Feels Like: 34 °F
Forecast: 18 / 38 °F
Wind: No wind

Location: Sandpoint Airport

Current Time: Mar 1, 2015 at 6:07:12 PM

Latest Report: Mar 1, 2015 at 5:35 PM


Visibility: 10 mi

Pressure: 30.02 "Hg

Humidity: 51%

Dew point: 18 °F

Location of SandpointLocation

Historic Weather in Sandpoint — Graph

°F

Sandpoint temperature yesterday

Maximum temperature yesterday: 43 °F (at 1:55 PM)
Minimum temperature yesterday: 21 °F (at 11:35 PM)
Average temperature yesterday: 32 °F

Past Weeks' High & Low Weather Summary

 TemperatureHumidityPressure
High48 °F (Feb 16, 2:15 PM)100% (Feb 14, 7:55 PM)30.50 "Hg (Feb 14, 7:55 PM)
Low18 °F (Mar 1, 5:15 AM)16% (Feb 28, 1:55 PM)29.83 "Hg (Feb 27, 1:55 PM)
Average33 °F73%30.22 "Hg
* Reported Feb 14 4:15 PM — Mar 1 4:55 PM, Sandpoint, Weather by CustomWeather, © 2015

Note: Actual official high and low records may vary slightly from our data, if they occured in-between our weather recording intervals... More about our weather records

Advertising

Sandpoint weather history for previous 24 hours

 ConditionsComfort  
Time TempWeatherWind HumidityBarometerVisibility
4:55 PM
Sun, Mar 1
36 °FScattered clouds.No wind48%30.03 "Hg10 mi
4:35 PM37 °FBroken clouds.No wind45%30.04 "Hg10 mi
4:15 PM37 °FPartly sunny.No wind48%30.05 "Hg10 mi
3:55 PM37 °FScattered clouds.No wind41%30.06 "Hg10 mi
3:35 PM37 °FScattered clouds.No wind41%30.07 "Hg10 mi
3:15 PM37 °FScattered clouds.No wind35%30.08 "Hg10 mi
2:55 PM37 °FSunny.No wind35%30.09 "Hg10 mi
2:35 PM37 °FSunny.No wind35%30.10 "Hg10 mi
2:15 PM37 °FSunny.No wind38%30.11 "Hg10 mi
1:55 PM37 °FScattered clouds.No wind38%30.12 "Hg10 mi
1:15 PM36 °FSunny.3 mph38%30.14 "Hg10 mi
12:55 PM36 °FSunny.3 mph41%30.16 "Hg10 mi
12:35 PM36 °FSunny.3 mph38%30.17 "Hg10 mi
12:15 PM36 °FSunny.No wind35%30.19 "Hg10 mi
11:35 AM32 °FSunny.No wind47%30.21 "Hg10 mi
11:15 AM32 °FSunny.No wind55%30.22 "Hg10 mi
10:55 AM32 °FSunny.No wind44%30.23 "Hg10 mi
10:35 AM32 °FSunny.No wind44%30.23 "Hg10 mi
10:15 AM32 °FSunny.No wind44%30.24 "Hg10 mi
9:55 AM32 °FSunny.5 mph47%30.24 "Hg10 mi
9:15 AM28 °FSunny.5 mph51%30.25 "Hg10 mi
8:55 AM28 °FSunny.5 mph55%30.26 "Hg10 mi
8:35 AM27 °FSunny.3 mph54%30.27 "Hg10 mi
8:15 AM25 °FSunny.No wind63%30.27 "Hg10 mi
7:55 AM23 °FSunny.No wind68%30.27 "Hg10 mi
7:35 AM21 °FSunny.No wind74%30.27 "Hg10 mi
7:15 AM19 °FSunny.No wind79%30.27 "Hg10 mi
6:55 AM18 °FSunny.No wind79%30.26 "Hg10 mi
6:35 AM18 °FSunny.No wind79%30.26 "Hg10 mi
6:15 AM18 °FClear.No wind79%30.26 "Hg10 mi
5:55 AM18 °FClear.No wind79%30.26 "Hg10 mi
5:35 AM19 °FClear.No wind73%30.26 "Hg10 mi
5:15 AM18 °FClear.No wind79%30.26 "Hg10 mi
4:55 AM19 °FClear.No wind73%30.26 "Hg10 mi
4:35 AM19 °FClear.3 mph73%30.26 "Hg10 mi
4:15 AM19 °FClear.No wind79%30.26 "Hg10 mi
3:55 AM19 °FClear.No wind73%30.26 "Hg10 mi
3:35 AM19 °FClear.No wind73%30.27 "Hg10 mi
3:15 AM19 °FClear.No wind79%30.26 "Hg10 mi
2:55 AM19 °FClear.5 mph73%30.26 "Hg10 mi
2:35 AM19 °FClear.No wind73%30.27 "Hg10 mi
2:15 AM19 °FClear.No wind79%30.27 "Hg10 mi
1:55 AM19 °FClear.No wind79%30.27 "Hg10 mi
1:35 AM19 °FClear.No wind79%30.27 "Hg10 mi
1:15 AM21 °FClear.No wind74%30.27 "Hg10 mi
12:55 AM19 °FClear.No wind79%30.26 "Hg10 mi
12:35 AM21 °FClear.No wind74%30.26 "Hg10 mi
12:15 AM21 °FClear.No wind74%30.25 "Hg10 mi
11:55 PM
Sat, Feb 28
21 °FClear.No wind74%30.25 "Hg10 mi
11:35 PM21 °FClear.No wind68%30.24 "Hg10 mi
11:15 PM23 °FClear.No wind68%30.23 "Hg10 mi
10:55 PM23 °FClear.3 mph68%30.23 "Hg10 mi
10:35 PM23 °FClear.No wind74%30.23 "Hg10 mi
10:15 PM23 °FClear.No wind68%30.22 "Hg10 mi
9:55 PM23 °FClear.No wind68%30.22 "Hg10 mi
9:15 PM25 °FClear.No wind63%30.21 "Hg10 mi
8:55 PM25 °FClear.No wind63%30.20 "Hg10 mi
8:35 PM27 °FClear.No wind59%30.19 "Hg10 mi
8:15 PM27 °FClear.No wind59%30.19 "Hg10 mi
7:55 PM27 °FClear.No wind59%30.18 "Hg10 mi
7:15 PM28 °FClear.No wind55%30.16 "Hg10 mi
6:55 PM30 °FClear.No wind43%30.16 "Hg10 mi
6:35 PM30 °FClear.No wind43%30.15 "Hg10 mi
6:15 PM30 °FClear.No wind43%30.15 "Hg10 mi
Weather by CustomWeather, © 2015

See weather overviewHow to use our weather pages